Tracking 30746 objects as of 19-Jun-2025
HD Live streaming from Space Station
objects crossing your sky now

STARLINK-6119

Track STARLINK-6119 now!
10-day predictions
STARLINK-6119 is classified as:


NORAD ID: 56125
Int'l Code: 2023-046AK
Perigee: 565.3 km
Apogee: 567.1 km
Inclination: 43.0 °
Period: 95.8 minutes
Semi major axis: 6937 km
RCS: Unknown
Launch date: March 29, 2023
Source: United States (US)
Launch site: AIR FORCE EASTERN TEST RANGE (AFETR)
Your satellite tracking list
Your tracking list is empty




NASA's NSSDC Master Catalog

Two Line Element Set (TLE):
1 56125U 23046AK  25170.27195974  .00000339  00000-0  40162-4 0  9995
2 56125  43.0025 137.6047 0001263 289.1420  70.9285 15.02537537122588
Source of the keplerian elements: AFSPC